User: anonymous   Login
Location: Unspecified
(0.0000°N, 0.0000°E)
Time: 06:13:40
(UTC+00:00)
Language:

DEIMOS 2 - Orbit

View from above orbital plane
View from above orbital plane
View from above satellite
View from above satellite

Ground track
Ground track

The orbit data is extracted from the following two-line orbital elements,

1 40013U 14033D   18203.46464825 -.00000588  00000-0 -63203-4 0  9993
2 40013  97.8598 107.6245 0002466  85.7162 274.4315 14.84731216221602
Epoch (UTC): 22 July 2018 11:09:05
Eccentricity: 0.0002466
inclination: 97.8598°
perigee height: 613 km
apogee height: 616 km
right ascension of ascending node: 107.6245°
argument of perigee: 85.7162°
revolutions per day: 14.84731216
mean anomaly at epoch: 274.4315°
orbit number at epoch: 22160

The dashed part of the orbit path shows where the satellite is in the earth's shadow,  

DLR